| time (UTC) | temp C | wind direction | speed KPH | gust KPH | rain 1hr cm | rain 24hr cm | rain mn cm | humidity % | barometer mb |
| 20260504081533 | 9 | 215 | 0.0 | 0.0 | 0.00 | 0.00 | 0.00 | 63 | 1016.2 |
| 20260504050015 | 8 | 193 | 0.0 | 0.0 | 0.00 | 0.00 | 0.00 | 70 | 1016.2 |
| 20260504044515 | 8 | 210 | 0.0 | 0.0 | 0.00 | 0.00 | 0.00 | 72 | 1016.2 |
| 20260504043011 | 8 | 211 | 0.0 | 0.0 | 0.00 | 0.00 | 0.00 | 72 | 1016.2 |
| 20260504041508 | 7 | 211 | 0.0 | 0.0 | 0.00 | 0.00 | 0.00 | 73 | 1016.0 |
| 20260504040004 | 7 | 211 | 0.0 | 0.0 | 0.00 | 0.00 | 0.00 | 72 | 1016.1 |
| 20260504034504 | 7 | 211 | 0.0 | 0.0 | 0.00 | 0.00 | 0.00 | 73 | 1016.2 |
| 20260504033003 | 6 | 211 | 0.0 | 0.0 | 0.00 | 0.00 | 0.00 | 74 | 1016.2 |
| 20260504031503 | 6 | 211 | 0.0 | 0.0 | 0.00 | 0.00 | 0.00 | 74 | 1016.2 |
| 20260504030001 | 6 | 211 | 0.0 | 0.0 | 0.00 | 0.00 | 0.00 | 74 | 1016.2 |
| 20260504024501 | 7 | 211 | 0.0 | 0.0 | 0.00 | 0.00 | 0.00 | 73 | 1016.1 |
| 20260504023102 | 7 | 210 | 0.0 | 0.0 | 0.00 | 0.00 | 0.00 | 68 | 1016.2 |
| 20260504021600 | 7 | 211 | 0.0 | 0.0 | 0.00 | 0.00 | 0.00 | 71 | 1016.1 |
| 20260504020059 | 8 | 211 | 0.0 | 0.0 | 0.00 | 0.00 | 0.00 | 66 | 1016.0 |
| 20260504014603 | 7 | 211 | 0.0 | 0.0 | 0.00 | 0.00 | 0.00 | 67 | 1015.9 |
| 20260504013112 | 8 | 211 | 0.0 | 0.0 | 0.00 | 0.00 | 0.00 | 64 | 1015.8 |
| 20260504011559 | 8 | 211 | 0.0 | 0.0 | 0.00 | 0.00 | 0.00 | 64 | 1015.6 |
| 20260504010114 | 9 | 211 | 0.0 | 0.0 | 0.00 | 0.00 | 0.00 | 57 | 1015.6 |
| 20260504004557 | 10 | 211 | 0.0 | 0.0 | 0.00 | 0.00 | 0.00 | 57 | 1015.4 |
| 20260504003056 | 11 | 210 | 0.0 | 0.0 | 0.00 | 0.00 | 0.00 | 51 | 1015.2 |
| 20260504001602 | 12 | 210 | 0.0 | 0.0 | 0.00 | 0.00 | 0.00 | 45 | 1015.3 |
| 20260504000058 | 13 | 211 | 0.0 | 0.0 | 0.00 | 0.00 | 0.00 | 38 | 1015.2 |
| 20260503234555 | 15 | 211 | 0.0 | 1.6 | 0.00 | 0.00 | 0.00 | 34 | 1015.0 |
| 20260503233101 | 17 | 210 | 0.0 | 1.6 | 0.00 | 0.00 | 0.00 | 31 | 1014.9 |
| 20260503231554 | 18 | 210 | 0.0 | 0.0 | 0.00 | 0.00 | 0.00 | 29 | 1014.8 |
| 20260503230055 | 18 | 280 | 0.0 | 3.2 | 0.00 | 0.00 | 0.00 | 28 | 1014.7 |
| 20260503224553 | 18 | 210 | 0.0 | 3.2 | 0.00 | 0.00 | 0.00 | 28 | 1014.8 |
| 20260503223053 | 18 | 249 | 0.0 | 4.8 | 0.00 | 0.00 | 0.00 | 28 | 1015.0 |
| 20260503221559 | 18 | 290 | 0.0 | 4.8 | 0.00 | 0.00 | 0.00 | 28 | 1014.9 |
| 20260503214551 | 18 | 229 | 1.6 | 9.7 | 0.00 | 0.00 | 0.00 | 27 | 1015.0 |
| 20260503213050 | 18 | 273 | 0.0 | 8.0 | 0.00 | 0.00 | 0.00 | 28 | 1015.0 |
| 20260503211549 | 18 | 13 | 3.2 | 9.7 | 0.00 | 0.00 | 0.00 | 28 | 1015.1 |
| 20260503210054 | 18 | 312 | 3.2 | 9.7 | 0.00 | 0.00 | 0.00 | 27 | 1015.1 |
| 20260503204558 | 17 | 352 | 3.2 | 14.5 | 0.00 | 0.00 | 0.00 | 29 | 1015.2 |
| 20260503203049 | 17 | 328 | 3.2 | 9.7 | 0.00 | 0.00 | 0.00 | 28 | 1015.3 |
| 20260503201544 | 17 | 84 | 4.8 | 11.3 | 0.00 | 0.00 | 0.00 | 29 | 1015.6 |
| 20260503200046 | 17 | 337 | 9.7 | 19.3 | 0.00 | 0.00 | 0.00 | 28 | 1015.9 |
| 20260503194543 | 16 | 224 | 0.0 | 12.9 | 0.00 | 0.00 | 0.00 | 31 | 1016.1 |
| 20260503193042 | 16 | 19 | 4.8 | 17.7 | 0.00 | 0.00 | 0.00 | 30 | 1016.4 |
| 20260503191543 | 16 | 128 | 1.6 | 12.9 | 0.00 | 0.00 | 0.00 | 31 | 1016.4 |
| 20260503190045 | 16 | 51 | 3.2 | 14.5 | 0.00 | 0.00 | 0.00 | 31 | 1016.8 |
| 20260503184537 | 16 | 332 | 4.8 | 8.0 | 0.00 | 0.00 | 0.00 | 31 | 1017.0 |
| 20260503183035 | 16 | 82 | 4.8 | 9.7 | 0.00 | 0.00 | 0.00 | 31 | 1017.1 |
| 20260503181534 | 16 | 255 | 1.6 | 9.7 | 0.00 | 0.00 | 0.00 | 31 | 1017.2 |
| 20260503180030 | 15 | 295 | 3.2 | 9.7 | 0.00 | 0.00 | 0.00 | 33 | 1017.2 |
| 20260503174530 | 14 | 103 | 1.6 | 11.3 | 0.00 | 0.00 | 0.00 | 34 | 1017.2 |
| 20260503173039 | 14 | 290 | 3.2 | 12.9 | 0.00 | 0.00 | 0.00 | 33 | 1017.4 |
| 20260503171527 | 13 | 330 | 9.7 | 19.3 | 0.00 | 0.00 | 0.00 | 34 | 1017.6 |